Mojave, CA

1:18 AM PDT on May 29, 2017 (GMT -0700)
Mojave

Weather History for KMHV - April, 2014

Change the Weather History Date:

Wednesday, April 16, 2014

  Actual Average Record
Temperature  
Mean Temperature 73 °F -  
Max Temperature 82 °F 71 °F 91 °F (1999)
Min Temperature 64 °F 46 °F 33 °F (1976)
Cooling Degree Days 8    
Growing Degree Days 23 (Base 50)    
Moisture  
Dew Point 24 °F    
Average Humidity 17    
Maximum Humidity 26    
Minimum Humidity 7    
Precipitation  
Precipitation 0.00 in - - ()
Sea Level Pressure  
Sea Level Pressure 29.82 in    
Wind  
Wind Speed 25 mph (WNW)    
Max Wind Speed 39 mph    
Max Gust Speed 51 mph    
Visibility 10 miles    
Events      
Averages and records for this station are not official NWS values.
T = Trace of Precipitation, MM = Missing Value Source: NWS Daily Summary

Daily Weather History Graph

Daily Weather History Graph

Search for Another Location

Airport or City:

Trip Planner

Search our weather history database for the weather conditions in past years. The results will help you decide how hot, cold, wet, or windy it might be!

Date:

Astronomy

Apr. 16, 2014 Rise Set
Actual Time 6:19 AM PDT 7:26 PM PDT
Civil Twilight 5:53 AM PDT 7:52 PM PDT
Nautical Twilight 5:21 AM PDT 8:23 PM PDT
Astronomical Twilight 4:49 AM PDT 8:55 PM PDT
Moon 9:11 PM PDT (4/16) 7:12 AM PDT (4/16)
Length of Visible Light 13h 59m
Length of Day
13h 06m
Full, 98% of the Moon is Illuminated
Apr 16
Full
Apr 22
Last Quarter
Apr 28
New
May 6
First Quarter
May 14
Full

Hourly Weather History & Observations

Time (PDT) Temp. Dew Point Humidity Pressure Visibility Wind Dir Wind Speed Gust Speed Precip Events Conditions
12:15 AM 68.0 °F 26.6 °F 21% 29.82 in 10.0 mi WNW 39.1 mph 47.2 mph N/A   Clear
12:35 AM 66.2 °F 26.6 °F 23% 29.82 in 10.0 mi WNW 34.5 mph 50.6 mph N/A   Clear
12:55 AM 66.2 °F 24.8 °F 21% 29.83 in 10.0 mi WNW 23.0 mph 43.7 mph N/A   Clear
1:15 AM 66.2 °F 24.8 °F 21% 29.83 in 10.0 mi WNW 26.5 mph 38.0 mph N/A   Clear
1:35 AM 68.0 °F 26.6 °F 21% 29.82 in 10.0 mi NW 26.5 mph 44.9 mph N/A   Clear
1:55 AM 68.0 °F 26.6 °F 21% 29.82 in 10.0 mi WNW 23.0 mph 38.0 mph N/A   Clear
2:15 AM 68.0 °F 26.6 °F 21% 29.82 in 10.0 mi WNW 26.5 mph 40.3 mph N/A   Clear
2:35 AM 66.2 °F 26.6 °F 23% 29.82 in 10.0 mi WNW 24.2 mph 33.4 mph N/A   Clear
2:55 AM 66.2 °F 24.8 °F 21% 29.82 in 10.0 mi WNW 24.2 mph 33.4 mph N/A   Clear
3:15 AM 66.2 °F 24.8 °F 21% 29.81 in 10.0 mi West 32.2 mph 36.8 mph N/A   Clear
3:35 AM 66.2 °F 24.8 °F 21% 29.81 in 10.0 mi West 27.6 mph 39.1 mph N/A   Clear
3:55 AM 66.2 °F 24.8 °F 21% 29.81 in 10.0 mi West 29.9 mph 35.7 mph N/A   Clear
4:15 AM 66.2 °F 24.8 °F 21% 29.81 in 10.0 mi WNW 25.3 mph 34.5 mph N/A   Clear
4:35 AM 66.2 °F 24.8 °F 21% 29.81 in 10.0 mi West 20.7 mph 38.0 mph N/A   Clear
4:55 AM 66.2 °F 24.8 °F 21% 29.81 in 10.0 mi WNW 24.2 mph 32.2 mph N/A   Clear
5:15 AM 66.2 °F 24.8 °F 21% 29.80 in 10.0 mi WNW 26.5 mph 32.2 mph N/A   Clear
5:35 AM 64.4 °F 23.0 °F 21% 29.81 in 10.0 mi West 25.3 mph 35.7 mph N/A   Clear
5:55 AM 64.4 °F 23.0 °F 21% 29.81 in 10.0 mi West 25.3 mph 33.4 mph N/A   Clear
6:15 AM 64.4 °F 23.0 °F 21% 29.81 in 10.0 mi WNW 26.5 mph 36.8 mph N/A   Clear
6:35 AM 64.4 °F 21.2 °F 19% 29.82 in 10.0 mi WNW 26.5 mph 32.2 mph N/A   Clear
6:55 AM 64.4 °F 19.4 °F 18% 29.83 in 10.0 mi West 21.9 mph 33.4 mph N/A   Clear
7:15 AM 66.2 °F 17.6 °F 15% 29.83 in 10.0 mi West 26.5 mph 35.7 mph N/A   Clear
7:35 AM 66.2 °F 15.8 °F 14% 29.84 in 10.0 mi West 26.5 mph 32.2 mph N/A   Clear
7:55 AM 68.0 °F 12.2 °F 12% 29.84 in 10.0 mi West 23.0 mph 33.4 mph N/A   Clear
8:15 AM 68.0 °F 15.8 °F 13% 29.84 in 10.0 mi WNW 21.9 mph 28.8 mph N/A   Unknown
8:35 AM 69.8 °F 14.0 °F 12% 29.85 in 10.0 mi WNW 17.3 mph - N/A   Clear
8:55 AM 71.6 °F 15.8 °F 12% 29.86 in 10.0 mi East 11.5 mph 18.4 mph N/A   Clear
9:15 AM 71.6 °F 15.8 °F 12% 29.86 in 10.0 mi SE 6.9 mph - N/A   Clear
9:35 AM 73.4 °F 14.0 °F 10% 29.86 in 10.0 mi ESE 6.9 mph - N/A   Clear
9:55 AM 73.4 °F 14.0 °F 10% 29.86 in 10.0 mi ESE 9.2 mph - N/A   Clear
10:15 AM 75.2 °F 12.2 °F 9% 29.86 in 10.0 mi ENE 6.9 mph - N/A   Clear
10:35 AM 75.2 °F 12.2 °F 9% 29.87 in 10.0 mi East 8.1 mph - N/A   Clear
10:55 AM 77.0 °F 10.4 °F 8% 29.88 in 10.0 mi West 3.5 mph - N/A   Clear
11:15 AM 80.6 °F 10.4 °F 7% 29.87 in 10.0 mi WSW 6.9 mph - N/A   Clear
11:35 AM 80.6 °F 10.4 °F 7% 29.87 in 10.0 mi WSW 6.9 mph - N/A   Clear
11:55 AM 80.6 °F 10.4 °F 7% 29.86 in 10.0 mi WSW 10.4 mph - N/A   Clear
12:15 PM 80.6 °F 12.2 °F 8% 29.85 in 10.0 mi West 12.7 mph 21.9 mph N/A   Clear
12:35 PM 82.4 °F 15.8 °F 8% 29.84 in 10.0 mi West 15.0 mph 18.4 mph N/A   Clear
12:55 PM 82.4 °F 19.4 °F 10% 29.83 in 10.0 mi West 17.3 mph - N/A   Clear
1:15 PM 82.4 °F 23.0 °F 11% 29.83 in 10.0 mi West 15.0 mph - N/A   Clear
1:35 PM 82.4 °F 24.8 °F 12% 29.82 in 10.0 mi West 18.4 mph - N/A   Clear
1:55 PM 82.4 °F 26.6 °F 13% 29.81 in 10.0 mi West 20.7 mph 25.3 mph N/A   Clear
2:15 PM 82.4 °F 26.6 °F 13% 29.81 in 10.0 mi West 21.9 mph 27.6 mph N/A   Clear
2:35 PM 82.4 °F 26.6 °F 13% 29.80 in 10.0 mi West 24.2 mph - N/A   Unknown
2:55 PM 82.4 °F 23.0 °F 11% 29.80 in 10.0 mi West 21.9 mph 31.1 mph N/A   Clear
3:15 PM 82.4 °F 24.8 °F 12% 29.79 in 10.0 mi WNW 20.7 mph 27.6 mph N/A   Unknown
3:35 PM 82.4 °F 24.8 °F 12% 29.78 in 10.0 mi WNW 21.9 mph 31.1 mph N/A   Clear
3:55 PM 82.4 °F 26.6 °F 13% 29.78 in 10.0 mi West 24.2 mph 28.8 mph N/A   Clear
4:15 PM 82.4 °F 26.6 °F 13% 29.77 in 10.0 mi WNW 26.5 mph 31.1 mph N/A   Clear
4:35 PM 80.6 °F 28.4 °F 15% 29.77 in 10.0 mi WNW 27.6 mph 33.4 mph N/A   Clear
4:55 PM 80.6 °F 28.4 °F 15% 29.76 in 10.0 mi WNW 27.6 mph 33.4 mph N/A   Clear
5:15 PM 78.8 °F 32.0 °F 18% 29.77 in 10.0 mi WNW 29.9 mph 34.5 mph N/A   Clear
5:35 PM 78.8 °F 32.0 °F 18% 29.77 in 10.0 mi WNW 25.3 mph 33.4 mph N/A   Clear
5:55 PM 77.0 °F 35.6 °F 22% 29.77 in 10.0 mi WNW 24.2 mph 34.5 mph N/A   Clear
6:15 PM 75.2 °F 32.0 °F 21% 29.77 in 10.0 mi West 26.5 mph 33.4 mph N/A   Clear
6:35 PM 75.2 °F 32.0 °F 21% 29.78 in 10.0 mi West 20.7 mph - N/A   Clear
6:55 PM 73.4 °F 32.0 °F 22% 29.79 in 10.0 mi West 16.1 mph 32.2 mph N/A   Clear
7:15 PM 71.6 °F 32.0 °F 23% 29.80 in 10.0 mi WNW 15.0 mph 21.9 mph N/A   Clear
7:35 PM 71.6 °F 32.0 °F 23% 29.78 in 10.0 mi WNW 29.9 mph 39.1 mph N/A   Clear
7:55 PM 69.8 °F 32.0 °F 25% 29.78 in 10.0 mi WNW 29.9 mph 40.3 mph N/A   Clear
8:15 PM 68.0 °F 32.0 °F 26% 29.78 in 10.0 mi WNW 31.1 mph 40.3 mph N/A   Clear
8:35 PM 68.0 °F 32.0 °F 26% 29.79 in 10.0 mi WNW 32.2 mph 41.4 mph N/A   Clear
8:55 PM 68.0 °F 32.0 °F 26% 29.79 in 10.0 mi WNW 32.2 mph 38.0 mph N/A   Clear
9:15 PM 68.0 °F 32.0 °F 26% 29.80 in 10.0 mi West 32.2 mph 38.0 mph N/A   Clear
9:35 PM 68.0 °F 32.0 °F 26% 29.81 in 10.0 mi WNW 29.9 mph 39.1 mph N/A   Clear
9:55 PM 68.0 °F 32.0 °F 26% 29.82 in 10.0 mi WNW 25.3 mph 34.5 mph N/A   Clear
10:15 PM - - N/A% 29.82 in - West 27.6 mph - N/A   Unknown
10:35 PM 68.0 °F 28.4 °F 23% 29.82 in 10.0 mi West 27.6 mph 34.5 mph N/A   Unknown
10:55 PM 68.0 °F 28.4 °F 23% 29.83 in 10.0 mi WNW 24.2 mph 33.4 mph N/A   Clear
11:15 PM 68.0 °F 28.4 °F 23% 29.83 in 10.0 mi West 23.0 mph 29.9 mph N/A   Clear
11:35 PM 68.0 °F 24.8 °F 20% 29.83 in 10.0 mi West 19.6 mph 25.3 mph N/A   Clear
11:55 PM 68.0 °F 24.8 °F 20% 29.84 in 10.0 mi West 19.6 mph 27.6 mph N/A   Clear